2023/02/19 00:00:00,28.4, 4.0
2023/02/19 00:10:00,28.3, 3.9
2023/02/19 00:20:00,28.2, 3.9
2023/02/19 00:30:00,28.2, 4.0
2023/02/19 00:40:00,28.2, 4.3
2023/02/19 00:50:00,28.2, 4.3
2023/02/19 01:00:00,28.2, 4.3
2023/02/19 01:10:00,27.8, 4.3
2023/02/19 01:20:00,27.8, 4.1
2023/02/19 01:30:00,27.7, 4.1
2023/02/19 01:40:00,27.6, 4.1
2023/02/19 01:50:00,27.6, 4.0
2023/02/19 02:00:00,27.5, 4.1
2023/02/19 02:10:00,27.4, 4.0
2023/02/19 02:20:00,27.4, 4.1
2023/02/19 02:30:00,27.4, 4.3
2023/02/19 02:40:00,27.3, 4.3
2023/02/19 02:50:00,27.3, 3.7
2023/02/19 03:00:00,27.2, 4.4
2023/02/19 03:10:00,27.2, 4.2
2023/02/19 03:20:00,27.2, 4.2
2023/02/19 03:30:00,27.3, 4.2
2023/02/19 03:40:00,27.3, 4.0
2023/02/19 03:50:00,27.2, 4.1
2023/02/19 04:00:00,27.1, 4.0
2023/02/19 04:10:00,26.8, 4.2
2023/02/19 04:20:00,26.6, 4.0
2023/02/19 04:30:00,26.6, 4.2
2023/02/19 04:40:00,26.4, 4.3
2023/02/19 04:50:00,26.5, 4.2
2023/02/19 05:00:00,26.5, 4.5
2023/02/19 05:10:00,26.5, 4.6
2023/02/19 05:20:00,26.6, 4.5
2023/02/19 05:30:00,26.7, 4.4
2023/02/19 05:40:00,26.5, 4.4
2023/02/19 05:50:00,26.4, 4.5
2023/02/19 06:00:00,26.6, 4.5
2023/02/19 06:10:00,26.8, 4.4
2023/02/19 06:20:00,26.8, 4.2
2023/02/19 06:30:00,26.7, 4.1
2023/02/19 06:40:00,26.9, 4.1
2023/02/19 06:50:00,26.9, 3.8
2023/02/19 07:00:00,26.8, 3.9
2023/02/19 07:10:00,26.5, 4.0
2023/02/19 07:20:00,26.5, 4.0
2023/02/19 07:30:00,26.4, 3.9
2023/02/19 07:40:00,26.5, 4.2
2023/02/19 07:50:00,26.3, 4.0
2023/02/19 08:00:00,26.1, 4.1
2023/02/19 08:10:00,26.0, 4.1
2023/02/19 08:20:00,25.9, 3.7
2023/02/19 08:30:00,25.9, 3.7
2023/02/19 08:40:00,26.0, 3.9
2023/02/19 08:50:00,25.9, 4.0
2023/02/19 09:00:00,26.0, 3.9
2023/02/19 09:10:00,25.9, 3.8
2023/02/19 09:20:00,25.9, 4.0
2023/02/19 09:30:00,25.7, 3.8
2023/02/19 09:40:00,25.7, 4.0
2023/02/19 09:50:00,25.7, 4.0
2023/02/19 10:00:00,25.7, 5.0
2023/02/19 10:10:00,24.8, 6.6
2023/02/19 10:20:00,25.4, 6.9
2023/02/19 10:30:00,25.7, 6.5
2023/02/19 10:40:00,25.5, 7.3
2023/02/19 10:50:00,25.5, 6.4
2023/02/19 11:00:00,25.4, 6.3
2023/02/19 11:10:00,25.2, 5.7
2023/02/19 11:20:00,25.1, 5.6
2023/02/19 11:30:00,25.0, 5.9
2023/02/19 11:40:00,24.7, 5.6
2023/02/19 11:50:00,24.7, 5.5
2023/02/19 12:00:00,24.6, 5.4
2023/02/19 12:10:00,24.8, 5.5
2023/02/19 12:20:00,24.6, 5.6
2023/02/19 12:30:00,24.4, 5.9
2023/02/19 12:40:00,24.2, 5.5
2023/02/19 12:50:00,24.2, 5.5
2023/02/19 13:00:00,24.3, 5.3
2023/02/19 13:10:00,25.1, 5.2
2023/02/19 13:20:00,24.9, 5.6
2023/02/19 13:30:00,24.5, 5.7
2023/02/19 13:40:00,24.6, 5.6
2023/02/19 13:50:00,24.7, 5.2
2023/02/19 14:00:00,24.5, 5.4
2023/02/19 14:10:00,24.6, 5.4
2023/02/19 14:20:00,24.6, 5.7
2023/02/19 14:30:00,24.2, 5.2
2023/02/19 14:40:00,24.3, 5.2
2023/02/19 14:50:00,23.9, 5.3
2023/02/19 15:00:00,23.9, 5.5
2023/02/19 15:10:00,23.9, 5.2
2023/02/19 15:20:00,23.9, 5.4
2023/02/19 15:30:00,23.8, 5.5
2023/02/19 15:40:00,23.9, 5.3
2023/02/19 15:50:00,24.3, 5.0
2023/02/19 16:00:00,24.2, 4.9
2023/02/19 16:10:00,24.1, 5.0
2023/02/19 16:20:00,24.0, 4.8
2023/02/19 16:30:00,24.0, 4.8
2023/02/19 16:40:00,24.0, 5.1
2023/02/19 16:50:00,24.0, 4.7
2023/02/19 17:00:00,24.1, 4.8
2023/02/19 17:10:00,24.0, 4.9
2023/02/19 17:20:00,24.0, 4.8
2023/02/19 17:30:00,23.9, 4.6
2023/02/19 17:40:00,23.9, 4.4
2023/02/19 17:50:00,23.7, 4.5
2023/02/19 18:00:00,23.5, 4.6
2023/02/19 18:10:00,23.4, 4.5
2023/02/19 18:20:00,23.4, 4.3
2023/02/19 18:30:00,23.6, 4.3
2023/02/19 18:40:00,23.6, 4.4
2023/02/19 18:50:00,23.5, 4.1
2023/02/19 19:00:00,23.5, 4.1
2023/02/19 19:10:00,23.5, 3.6
2023/02/19 19:20:00,23.4, 3.9
2023/02/19 19:30:00,23.5, 3.6
2023/02/19 19:40:00,23.5, 3.8
2023/02/19 19:50:00,23.6, 3.8
2023/02/19 20:00:00,23.6, 3.8
2023/02/19 20:10:00,23.6, 3.6
2023/02/19 20:20:00,23.7, 3.6
2023/02/19 20:30:00,23.6, 3.6
2023/02/19 20:40:00,23.5, 3.5
2023/02/19 20:50:00,23.5, 3.5
2023/02/19 21:00:00,23.4, 3.6
2023/02/19 21:10:00,23.4, 3.5
2023/02/19 21:20:00,23.3, 3.4
2023/02/19 21:30:00,23.3, 3.5
2023/02/19 21:40:00,23.3, 3.4
2023/02/19 21:50:00,23.3, 3.6
2023/02/19 22:00:00,23.3, 3.5
2023/02/19 22:10:00,23.3, 3.5
2023/02/19 22:20:00,23.3, 3.6
2023/02/19 22:30:00,23.3, 3.6
2023/02/19 22:40:00,23.2, 3.4
2023/02/19 22:50:00,23.2, 3.4
2023/02/19 23:00:00,23.3, 3.4
2023/02/19 23:10:00,23.2, 3.4
2023/02/19 23:20:00,23.2, 3.3
2023/02/19 23:30:00,23.1, 3.4
2023/02/19 23:40:00,23.1, 3.6
2023/02/19 23:50:00,23.1, 3.0
